This is the latest recevied weather packets stored in our database for station/object KJ4AJP. If no packets are shown the sender has not sent any weather packets the latest 10 day(s).
| Time | Temp. | Humidity | Pressure | Rain* | Wind** | Luminosity | Snow |
|---|---|---|---|---|---|---|---|
| 1777603561 | 12.78° C | 72% | 1016.4 hPa | 0 mm | - | 0 W/m² | - |
| 1777603256 | 13.33° C | 69% | 1016.3 hPa | 0 mm | - | 0 W/m² | - |
| 1777602952 | 13.33° C | 64% | 1016.4 hPa | 0 mm | - | 0 W/m² | - |
| 1777602648 | 13.33° C | 66% | 1016.1 hPa | 0 mm | - | 0 W/m² | - |
| 1777602342 | 13.33° C | 66% | 1016.4 hPa | 0 mm | - | 0 W/m² | - |
| 1777602039 | 13.33° C | 67% | 1016.3 hPa | 0 mm | - | 0 W/m² | - |
| 1777601733 | 13.33° C | 65% | 1016.3 hPa | 0 mm | - | 0 W/m² | - |
| 1777601429 | 13.33° C | 66% | 1015.9 hPa | 0 mm | - | 0 W/m² | - |
| 1777601126 | 13.33° C | 64% | 1015.9 hPa | 0 mm | - | 0 W/m² | - |
| 1777600824 | 13.33° C | 63% | 1015.9 hPa | 0 mm | - | 0 W/m² | - |
| 1777600524 | 13.33° C | 63% | 1015.9 hPa | 0 mm | - | 0 W/m² | - |
| 1777600220 | 13.33° C | 64% | 1015.8 hPa | 0 mm | - | 0 W/m² | - |
| 1777599915 | 13.33° C | 63% | 1015.7 hPa | 0 mm | - | 0 W/m² | - |
| 1777599612 | 13.89° C | 65% | 1015.7 hPa | 0 mm | - | 0 W/m² | - |
| 1777599309 | 13.89° C | 67% | 1015.6 hPa | 0 mm | - | 0 W/m² | - |
| 1777599006 | 13.89° C | 63% | 1015.4 hPa | 0 mm | - | 0 W/m² | - |
| 1777598702 | 13.89° C | 58% | 1015.3 hPa | 0 mm | - | 0 W/m² | - |
| 1777598398 | 13.89° C | 60% | 1015.5 hPa | 0 mm | - | 0 W/m² | - |
| 1777598097 | 13.89° C | 60% | 1015.2 hPa | 0 mm | - | 0 W/m² | - |
| 1777597797 | 13.89° C | 61% | 1015.2 hPa | 0 mm | - | 0 W/m² | - |
| 1777597492 | 13.89° C | 62% | 1015.4 hPa | 0 mm | - | 0 W/m² | - |
| 1777597188 | 13.89° C | 59% | 1015 hPa | 0 mm | - | 0 W/m² | - |
| 1777596883 | 14.44° C | 61% | 1015.2 hPa | 0 mm | - | 0 W/m² | - |
| 1777596580 | 14.44° C | 58% | 1015.1 hPa | 0 mm | - | 1 W/m² | - |
| 1777596277 | 14.44° C | 58% | 1015 hPa | 0 mm | - | 2 W/m² | - |
* Rain latest hour (hover to see other rain measurements)
** Current wind speed in m/s (hover to see current wind gust speed)